Location: La Pernelle
(49.6188°N, 1.2999°W)
Time: 09:17:42
(UTC+00:00)

Aureole 1 Rocket - Pass Details

Date: 12 June 2021
Orbit: 377 x 1372 km, 73.9° (Epoch: 01 August)

Event Time Altitude Azimuth Distance (km) Brightness Sun altitude
Rises 21:46:26 0° 339° (NNW) 3,031 8.5 -10.9°
Reaches altitude 10° 21:48:31 10° 344° (NNW) 2,245 7.3 -11.1°
Maximum altitude 21:53:37 57° 63° (ENE) 1,036 4.1 -11.5°
Enters shadow 21:59:08 15° 139° (SE) 2,511 5.5 -12.0°
